Location: Ellerstadt
(49.4644°N, 8.2615°E)
Time: 05:06:30
(UTC+00:00)

Cosmos 1943 Rocket - Pass Details

Date: 03 March 2021
Orbit: 811 x 844 km, 71.0° (Epoch: 11 April)

Event Time Altitude Azimuth Distance (km) Brightness Sun altitude
Rises 18:58:36 0° 332° (NNW) 3,415 5.9 -17.9°
Reaches altitude 10° 19:02:41 10° 1° (N) 2,478 4.8 -18.5°
Maximum altitude 19:05:09 13° 27° (NNE) 2,282 4.3 -18.9°
Enters shadow 19:06:42 12° 44° (NE) 2,360 4.2 -19.1°
